Chipley, FL

3:02 PM CDT on March 23, 2017 (GMT -0500)
Chipley

Weather History for KVSH - December, 2012

Change the Weather History Date:

Thursday, December 13, 2012

  Actual Average (KDHN) Record (KDHN)
Temperature  
Mean Temperature 52 °F -  
Max Temperature 59 °F 63 °F 81 °F (1948)
Min Temperature 44 °F 41 °F 7 °F (1962)
Degree Days  
Heating Degree Days 14    
Growing Degree Days 2 (Base 50)    
Moisture  
Dew Point 34 °F    
Average Humidity 53    
Maximum Humidity 66    
Minimum Humidity 44    
Precipitation  
Precipitation 0.00 in - - ()
Sea Level Pressure  
Sea Level Pressure 30.30 in    
Wind  
Wind Speed 5 mph (NE)    
Max Wind Speed 8 mph    
Max Gust Speed -    
Visibility 10 miles    
Events      
Averages and records for this station are not official NWS values.
T = Trace of Precipitation, MM = Missing Value Source: NWS Daily Summary

Daily Weather History Graph

Daily Weather History Graph

Search for Another Location

Airport or City:

Trip Planner

Search our weather history database for the weather conditions in past years. The results will help you decide how hot, cold, wet, or windy it might be!

Date:

Astronomy

Dec. 13, 2012 Rise Set
Actual Time 6:31 AM CST 4:42 PM CST
Civil Twilight 6:05 AM CST 5:08 PM CST
Nautical Twilight 5:34 AM CST 5:38 PM CST
Astronomical Twilight 5:05 AM CST 6:08 PM CST
Moon 6:40 AM CST (12/13) 5:22 PM CST (12/13)
Length of Visible Light 11h 03m
Length of Day
10h 10m
New Moon, 0% of the Moon is Illuminated
Dec 13
New Moon
Dec 19
First Quarter
Dec 28
Full
Jan 4
Last Quarter
Jan 11
New

Hourly Weather History & Observations

Time (CST) Temp. Windchill Dew Point Humidity Pressure Visibility Wind Dir Wind Speed Gust Speed Precip Events Conditions
12:15 AM 48.2 °F - 28.4 °F 46% 30.29 in 10.0 mi NNE 5.8 mph - N/A   Clear
12:35 AM 48.2 °F - 28.4 °F 46% 30.29 in 10.0 mi NNE 6.9 mph - N/A   Clear
12:55 AM 46.4 °F 43.5 °F 28.4 °F 50% 30.29 in 10.0 mi NNE 5.8 mph - N/A   Clear
1:15 AM 46.4 °F 43.5 °F 28.4 °F 50% 30.29 in 10.0 mi NNE 5.8 mph - N/A   Clear
1:35 AM 46.4 °F 45.2 °F 28.4 °F 50% 30.28 in 10.0 mi NNE 3.5 mph - N/A   Clear
1:55 AM 46.4 °F 44.3 °F 28.4 °F 50% 30.28 in 10.0 mi NNE 4.6 mph - N/A   Clear
2:15 AM 46.4 °F 44.3 °F 26.6 °F 46% 30.28 in 10.0 mi NNE 4.6 mph - N/A   Clear
2:35 AM 46.4 °F 42.9 °F 28.4 °F 50% 30.28 in 10.0 mi NNE 6.9 mph - N/A   Clear
2:55 AM 44.6 °F 40.2 °F 26.6 °F 49% 30.28 in 10.0 mi NNE 8.1 mph - N/A   Clear
3:15 AM 44.6 °F 40.2 °F 28.4 °F 53% 30.28 in 10.0 mi NNE 8.1 mph - N/A   Clear
3:35 AM 44.6 °F 40.7 °F 28.4 °F 53% 30.28 in 10.0 mi NNE 6.9 mph - N/A   Clear
3:55 AM 44.6 °F 42.2 °F 28.4 °F 53% 30.28 in 10.0 mi NNE 4.6 mph - N/A   Clear
4:15 AM 44.6 °F 42.2 °F 28.4 °F 53% 30.28 in 10.0 mi NNE 4.6 mph - N/A   Clear
4:35 AM 44.6 °F 40.7 °F 30.2 °F 57% 30.28 in 10.0 mi NNE 6.9 mph - N/A   Unknown
4:55 AM 44.6 °F 41.4 °F 30.2 °F 57% 30.28 in 10.0 mi NNE 5.8 mph - N/A   Unknown
5:15 AM 44.6 °F 43.1 °F 30.2 °F 57% 30.30 in 10.0 mi NNE 3.5 mph - N/A   Clear
5:35 AM 44.6 °F 43.1 °F 32.0 °F 61% 30.31 in 10.0 mi North 3.5 mph - N/A   Clear
5:55 AM 44.6 °F 42.2 °F 32.0 °F 61% 30.31 in 10.0 mi North 4.6 mph - N/A   Clear
6:15 AM 44.6 °F 42.2 °F 32.0 °F 61% 30.32 in 10.0 mi NNE 4.6 mph - N/A   Clear
6:35 AM 44.6 °F 41.4 °F 32.0 °F 61% 30.33 in 10.0 mi NNE 5.8 mph - N/A   Clear
6:55 AM 44.6 °F 41.4 °F 30.2 °F 57% 30.33 in 10.0 mi NNE 5.8 mph - N/A   Clear
7:15 AM 44.6 °F 40.7 °F 32.0 °F 61% 30.33 in 10.0 mi NNE 6.9 mph - N/A   Clear
7:35 AM 44.6 °F 43.1 °F 32.0 °F 61% 30.34 in 10.0 mi NNE 3.5 mph - N/A   Clear
7:55 AM 44.6 °F 43.1 °F 33.8 °F 66% 30.34 in 10.0 mi North 3.5 mph - N/A   Clear
8:15 AM 46.4 °F 44.3 °F 33.8 °F 62% 30.35 in 10.0 mi NNE 4.6 mph - N/A   Clear
8:35 AM 46.4 °F 42.4 °F 32.0 °F 57% 30.35 in 10.0 mi NE 8.1 mph - N/A   Clear
8:55 AM 46.4 °F 42.9 °F 32.0 °F 57% 30.36 in 10.0 mi NE 6.9 mph - N/A   Clear
9:15 AM 48.2 °F - 33.8 °F 58% 30.36 in 10.0 mi NE 3.5 mph - N/A   Clear
9:35 AM 50.0 °F - 33.8 °F 54% 30.37 in 10.0 mi North 4.6 mph - N/A   Clear
9:55 AM 51.8 °F - 33.8 °F 50% 30.37 in 10.0 mi ENE 4.6 mph - N/A   Clear
10:15 AM 53.6 °F - 33.8 °F 47% 30.37 in 10.0 mi Calm Calm - N/A   Clear
10:35 AM 53.6 °F - 33.8 °F 47% 30.37 in 10.0 mi ENE 3.5 mph - N/A   Clear
10:55 AM 55.4 °F - 33.8 °F 44% 30.36 in 10.0 mi East 3.5 mph - N/A   Clear
11:15 AM 55.4 °F - 35.6 °F 47% 30.35 in 10.0 mi East 6.9 mph - N/A   Clear
11:35 AM 57.2 °F - 35.6 °F 44% 30.34 in 10.0 mi East 6.9 mph - N/A   Clear
11:55 AM 57.2 °F - 35.6 °F 44% 30.34 in 10.0 mi East 8.1 mph - N/A   Clear
12:15 PM 57.2 °F - 35.6 °F 44% 30.33 in 10.0 mi East 6.9 mph - N/A   Clear
12:35 PM 57.2 °F - 35.6 °F 44% 30.31 in 10.0 mi ENE 5.8 mph - N/A   Clear
12:55 PM 57.2 °F - 35.6 °F 44% 30.31 in 10.0 mi ENE 3.5 mph - N/A   Clear
1:15 PM 57.2 °F - 37.4 °F 48% 30.30 in 10.0 mi ENE 4.6 mph - N/A   Clear
1:35 PM 57.2 °F - 37.4 °F 48% 30.29 in 10.0 mi ENE 4.6 mph - N/A   Clear
1:55 PM 57.2 °F - 37.4 °F 48% 30.29 in 10.0 mi East 3.5 mph - N/A   Clear
2:15 PM 57.2 °F - 37.4 °F 48% 30.29 in 10.0 mi East 3.5 mph - N/A   Clear
2:35 PM 59.0 °F - 37.4 °F 45% 30.28 in 10.0 mi NE 5.8 mph - N/A   Clear
2:55 PM 59.0 °F - 37.4 °F 45% 30.27 in 10.0 mi East 3.5 mph - N/A   Clear
3:15 PM 59.0 °F - 37.4 °F 45% 30.27 in 10.0 mi NE 5.8 mph - N/A   Clear
3:35 PM 59.0 °F - 37.4 °F 45% 30.27 in 10.0 mi NE 6.9 mph - N/A   Clear
3:55 PM 57.2 °F - 35.6 °F 44% 30.27 in 10.0 mi NE 6.9 mph - N/A   Clear
4:15 PM 57.2 °F - 35.6 °F 44% 30.26 in 10.0 mi NE 5.8 mph - N/A   Clear
4:35 PM 57.2 °F - 37.4 °F 48% 30.27 in 10.0 mi NE 3.5 mph - N/A   Clear
7:15 PM 55.4 °F - 39.2 °F 54% 30.28 in 10.0 mi Calm Calm - N/A   Clear
7:35 PM 55.4 °F - 37.4 °F 51% 30.28 in 10.0 mi Calm Calm - N/A   Clear
8:15 PM 53.6 °F - 37.4 °F 54% 30.28 in 10.0 mi Calm Calm - N/A   Clear
8:35 PM 53.6 °F - 37.4 °F 54% 30.29 in 10.0 mi Calm Calm - N/A   Clear
8:55 PM 53.6 °F - 39.2 °F 58% 30.29 in 10.0 mi Calm Calm - N/A   Clear
9:15 PM 51.8 °F - 39.2 °F 62% 30.30 in 10.0 mi Calm Calm - N/A   Clear
9:35 PM 51.8 °F - 39.2 °F 62% 30.30 in 10.0 mi Calm Calm - N/A   Clear
9:55 PM 51.8 °F - 39.2 °F 62% 30.30 in 10.0 mi Calm Calm - N/A   Clear
10:15 PM 51.8 °F - 39.2 °F 62% 30.30 in 10.0 mi Calm Calm - N/A   Clear
10:35 PM 51.8 °F - 39.2 °F 62% 30.30 in 10.0 mi Calm Calm - N/A   Clear
10:55 PM 51.8 °F - 39.2 °F 62% 30.29 in 10.0 mi Calm Calm - N/A   Clear
11:15 PM 51.8 °F - 39.2 °F 62% 30.28 in 10.0 mi NE 4.6 mph - N/A   Clear
11:35 PM 51.8 °F - 39.2 °F 62% 30.28 in 10.0 mi Calm Calm - N/A   Clear
11:55 PM 50.0 °F - 39.2 °F 66% 30.28 in 8.0 mi Calm Calm - N/A   Clear